Location: Grange Verzio
(44.5000°N, 6.9833°E)
Time: 17:37:46
(UTC+00:00)

CP3 - Visible Passes

Search period start: 19 April 2025 00:00
Search period end: 29 April 2025 00:00
Orbit: 621 x 739 km, 98.4° (Epoch: 17 April)

Date Brightness Start Highest point End Pass type
(mag) Time Alt. Az. Time Alt. Az. Time Alt. Az.
19 Apr ? 01:46:29 10° NE 01:49:42 17° E 01:52:52 10° SE visible
19 Apr ? 03:22:26 10° N 03:27:20 62° WNW 03:31:47 12° SSW visible
20 Apr ? 02:21:13 10° NNE 02:25:46 36° E 02:29:40 13° SSE visible
20 Apr ? 03:58:37 10° N 04:02:54 30° WNW 04:07:09 10° SW visible
21 Apr ? 02:56:40 10° NNE 03:01:40 77° ESE 03:05:58 14° S visible
22 Apr ? 01:56:07 10° NE 01:59:50 21° E 02:03:29 10° SE visible
22 Apr ? 03:32:32 10° N 03:37:20 50° WNW 03:42:05 10° SW visible
23 Apr ? 02:31:05 10° NNE 02:35:50 44° E 02:40:06 12° S visible
24 Apr ? 01:32:04 10° ENE 01:33:44 12° E 01:35:23 10° ESE visible
24 Apr ? 03:06:38 10° NNE 03:11:39 87° WNW 03:16:22 11° SSW visible
25 Apr ? 02:05:48 10° NE 02:09:52 25° E 02:13:53 10° SSE visible
25 Apr ? 03:42:36 10° N 03:47:15 41° WNW 03:51:47 10° SW visible
26 Apr ? 02:40:56 10° NNE 02:45:48 54° E 02:50:26 11° S visible
27 Apr ? 01:41:07 10° ENE 01:43:45 14° E 01:46:22 10° ESE visible
27 Apr ? 03:16:35 10° N 03:21:32 71° WNW 03:26:21 10° SSW visible
28 Apr ? 02:15:28 10° NE 02:19:49 30° E 02:24:04 10° SSE visible
28 Apr ? 03:52:37 10° N 03:57:03 34° WNW 04:01:23 10° SW visible
